When you browse on this site, cookies collect data to enhance your experience and personalize the content and advertising you see.
Visit our Privacy Policy to learn more. By continuing to use the site, you agree to this use of cookies and data.
  • In Latvia
  • List of Countries
  • For 7 days
  • Water Temperature
  • Satellite Maps
  • Weather Map
  • Weather Widgets
  • user-avatar
    Login

    Hourly Weather Usole

    Today, 19 June, Wednesday

    Time Temperature Precipitation Wind Pressure Humidity
    00:00 +18°C° 0 mm 1 mps 749 mmHg 85%
    01:00 +16°C° 0 mm 1 mps 749 mmHg 86%
    02:00 +16°C° 0 mm 1 mps 749 mmHg 88%
    03:00 +16°C° 0 mm 1 mps 749 mmHg 89%
    04:00 +18°C° 0 mm 1 mps 749 mmHg 88%
    05:00 +18°C° 0 mm 2 mps 749 mmHg 86%
    06:00 +19°C° 0 mm 2 mps 749 mmHg 84%
    07:00 +20°C° 0 mm 2 mps 749 mmHg 78%
    08:00 +22°C° 0 mm 1 mps 749 mmHg 72%
    09:00 +24°C° 0 mm 1 mps 749 mmHg 66%
    10:00 +24°C° 0.3 mm 2 mps 749 mmHg 63%
    11:00 +25°C° 0.3 mm 2 mps 749 mmHg 60%
    12:00 +26°C° 0.3 mm 2 mps 749 mmHg 58%
    13:00 +26°C° 0.3 mm 2 mps 749 mmHg 57%
    14:00 +26°C° 0.3 mm 2 mps 749 mmHg 56%
    15:00 +27°C° 0.3 mm 2 mps 749 mmHg 55%
    16:00 +26°C° 0.1 mm 2 mps 749 mmHg 61%
    17:00 +25°C° 0.1 mm 2 mps 749 mmHg 66%
    18:00 +25°C° 0.1 mm 3 mps 749 mmHg 71%
    19:00 +22°C° 0 mm 3 mps 750 mmHg 75%
    20:00 +20°C° 0 mm 3 mps 750 mmHg 79%
    21:00 +19°C° 0 mm 3 mps 750 mmHg 83%
    22:00 +18°C° 0 mm 2 mps 750 mmHg 84%
    23:00 +18°C° 0 mm 2 mps 750 mmHg 85%

    Tomorrow, 20 June, Thursday

    Time Temperature Precipitation Wind Pressure Humidity
    00:00 +17°C° 0 mm 2 mps 751 mmHg 86%
    01:00 +17°C° 0 mm 2 mps 751 mmHg 87%
    02:00 +16°C° 0 mm 3 mps 751 mmHg 87%
    03:00 +16°C° 0 mm 3 mps 751 mmHg 87%
    04:00 +17°C° 0 mm 3 mps 752 mmHg 85%
    05:00 +18°C° 0 mm 3 mps 752 mmHg 82%
    06:00 +19°C° 0 mm 3 mps 752 mmHg 80%
    07:00 +21°C° 0 mm 3 mps 752 mmHg 75%
    08:00 +22°C° 0 mm 3 mps 752 mmHg 70%
    09:00 +25°C° 0 mm 4 mps 752 mmHg 65%
    10:00 +25°C° 0 mm 4 mps 752 mmHg 62%
    11:00 +26°C° 0 mm 3 mps 753 mmHg 58%
    12:00 +27°C° 0 mm 3 mps 753 mmHg 55%
    13:00 +27°C° 0 mm 4 mps 752 mmHg 55%
    14:00 +27°C° 0 mm 4 mps 752 mmHg 55%
    15:00 +27°C° 0 mm 4 mps 752 mmHg 54%
    16:00 +27°C° 0.1 mm 3 mps 753 mmHg 59%
    17:00 +26°C° 0.1 mm 3 mps 753 mmHg 64%
    18:00 +25°C° 0.1 mm 3 mps 753 mmHg 69%
    19:00 +24°C° 0 mm 2 mps 753 mmHg 71%
    20:00 +21°C° 0 mm 2 mps 753 mmHg 73%
    21:00 +19°C° 0 mm 2 mps 753 mmHg 76%
    22:00 +19°C° 0 mm 2 mps 754 mmHg 76%
    23:00 +18°C° 0 mm 2 mps 754 mmHg 77%

    Day after tomorrow, 21 June, Friday

    Time Temperature Precipitation Wind Pressure Humidity
    00:00 +18°C° 0 mm 2 mps 754 mmHg 78%
    01:00 +19°C° 0 mm 1 mps 754 mmHg 79%
    02:00 +18°C° 0 mm 1 mps 754 mmHg 79%
    03:00 +18°C° 0 mm 1 mps 755 mmHg 80%
    04:00 +18°C° 0 mm 2 mps 755 mmHg 79%
    05:00 +19°C° 0 mm 2 mps 755 mmHg 77%
    06:00 +20°C° 0 mm 2 mps 755 mmHg 76%
    07:00 +21°C° 0 mm 3 mps 755 mmHg 72%
    08:00 +24°C° 0 mm 3 mps 755 mmHg 68%
    09:00 +25°C° 0 mm 3 mps 755 mmHg 64%
    10:00 +26°C° 0 mm 3 mps 755 mmHg 59%
    11:00 +27°C° 0 mm 3 mps 755 mmHg 54%
    12:00 +28°C° 0 mm 4 mps 755 mmHg 49%
    13:00 +28°C° 0 mm 4 mps 755 mmHg 48%
    14:00 +28°C° 0 mm 4 mps 755 mmHg 48%
    15:00 +28°C° 0 mm 3 mps 755 mmHg 48%
    16:00 +27°C° 0 mm 3 mps 755 mmHg 52%
    17:00 +27°C° 0 mm 2 mps 755 mmHg 57%
    18:00 +26°C° 0 mm 2 mps 755 mmHg 61%
    19:00 +25°C° 0 mm 2 mps 755 mmHg 63%
    20:00 +23°C° 0 mm 1 mps 756 mmHg 64%
    21:00 +21°C° 0 mm 1 mps 756 mmHg 65%
    22:00 +21°C° 0 mm 1 mps 756 mmHg 68%
    23:00 +20°C° 0 mm 1 mps 756 mmHg 70%

    22 June, Saturday

    Time Temperature Precipitation Wind Pressure Humidity
    00:00 +18°C° 0 mm 0 mps 756 mmHg 73%
    01:00 +18°C° 0 mm 0 mps 756 mmHg 73%
    02:00 +17°C° 0 mm 0 mps 756 mmHg 74%
    03:00 +17°C° 0 mm 0 mps 756 mmHg 75%
    04:00 +20°C° 0 mm 1 mps 756 mmHg 79%
    05:00 +21°C° 0 mm 1 mps 757 mmHg 77%
    06:00 +22°C° 0 mm 1 mps 757 mmHg 75%
    07:00 +23°C° 0 mm 1 mps 757 mmHg 70%
    08:00 +24°C° 0 mm 1 mps 757 mmHg 65%
    09:00 +26°C° 0 mm 1 mps 757 mmHg 61%
    10:00 +27°C° 0 mm 1 mps 757 mmHg 57%
    11:00 +27°C° 0 mm 1 mps 757 mmHg 52%
    12:00 +28°C° 0 mm 1 mps 757 mmHg 48%
    13:00 +28°C° 0 mm 1 mps 757 mmHg 48%
    14:00 +28°C° 0 mm 1 mps 757 mmHg 47%
    15:00 +29°C° 0 mm 1 mps 756 mmHg 46%
    16:00 +28°C° 0 mm 1 mps 756 mmHg 51%
    17:00 +27°C° 0 mm 1 mps 756 mmHg 56%
    18:00 +27°C° 0 mm 1 mps 756 mmHg 60%
    19:00 +25°C° 0 mm 1 mps 756 mmHg 62%
    20:00 +24°C° 0 mm 1 mps 756 mmHg 64%
    21:00 +22°C° 0 mm 1 mps 756 mmHg 66%
    22:00 +21°C° 0 mm 1 mps 756 mmHg 67%
    23:00 +21°C° 0 mm 1 mps 756 mmHg 69%

    23 June, Sunday

    Time Temperature Precipitation Wind Pressure Humidity
    00:00 +20°C° 0 mm 1 mps 756 mmHg 70%
    01:00 +20°C° 0 mm 1 mps 756 mmHg 71%
    02:00 +20°C° 0 mm 1 mps 756 mmHg 72%
    03:00 +19°C° 0 mm 1 mps 757 mmHg 72%
    04:00 +20°C° 0 mm 1 mps 757 mmHg 71%
    05:00 +22°C° 0 mm 1 mps 757 mmHg 70%
    06:00 +23°C° 0 mm 1 mps 757 mmHg 69%
    07:00 +24°C° 0 mm 1 mps 757 mmHg 65%
    08:00 +26°C° 0 mm 2 mps 757 mmHg 61%
    09:00 +27°C° 0 mm 2 mps 757 mmHg 56%
    10:00 +28°C° 0 mm 2 mps 756 mmHg 53%
    11:00 +29°C° 0 mm 2 mps 756 mmHg 49%
    12:00 +30°C° 0 mm 2 mps 756 mmHg 46%
    13:00 +30°C° 0 mm 2 mps 756 mmHg 46%
    14:00 +30°C° 0 mm 2 mps 756 mmHg 45%
    15:00 +31°C° 0 mm 2 mps 756 mmHg 45%
    16:00 +30°C° 0 mm 2 mps 755 mmHg 49%
    17:00 +30°C° 0 mm 1 mps 755 mmHg 54%
    18:00 +29°C° 0 mm 1 mps 755 mmHg 59%
    19:00 +27°C° 0 mm 1 mps 755 mmHg 62%
    20:00 +26°C° 0 mm 1 mps 755 mmHg 66%
    21:00 +24°C° 0 mm 1 mps 755 mmHg 70%
    22:00 +23°C° 0 mm 1 mps 755 mmHg 72%
    23:00 +22°C° 0 mm 1 mps 755 mmHg 75%

    24 June, Monday

    Time Temperature Precipitation Wind Pressure Humidity
    00:00 +22°C° 0 mm 1 mps 755 mmHg 77%
    01:00 +22°C° 0 mm 1 mps 755 mmHg 79%
    02:00 +21°C° 0 mm 1 mps 755 mmHg 82%
    03:00 +21°C° 0 mm 1 mps 755 mmHg 84%
    04:00 +22°C° 0 mm 1 mps 755 mmHg 81%
    05:00 +23°C° 0 mm 1 mps 755 mmHg 78%
    06:00 +25°C° 0 mm 1 mps 756 mmHg 75%
    07:00 +26°C° 0 mm 1 mps 756 mmHg 71%
    08:00 +27°C° 0 mm 1 mps 756 mmHg 68%
    09:00 +28°C° 0 mm 1 mps 756 mmHg 64%
    10:00 +29°C° 0 mm 1 mps 756 mmHg 61%
    11:00 +30°C° 0 mm 1 mps 755 mmHg 57%
    12:00 +29°C° 0 mm 0 mps 755 mmHg 54%
    13:00 +31°C° 0.1 mm 1 mps 755 mmHg 54%
    14:00 +31°C° 0.1 mm 1 mps 755 mmHg 54%
    15:00 +31°C° 0.1 mm 1 mps 755 mmHg 54%
    16:00 +31°C° 0 mm 1 mps 754 mmHg 58%
    17:00 +30°C° 0 mm 1 mps 754 mmHg 61%
    18:00 +30°C° 0 mm 1 mps 754 mmHg 64%
    19:00 +28°C° 0 mm 1 mps 754 mmHg 68%
    20:00 +26°C° 0 mm 1 mps 754 mmHg 71%
    21:00 +25°C° 0 mm 1 mps 754 mmHg 75%
    22:00 +24°C° 0 mm 1 mps 754 mmHg 77%
    23:00 +24°C° 0 mm 1 mps 754 mmHg 78%
    Show more